Weather Roundup
Issued by NWS Corpus Christi, TX

Home | Current Version | Previous Version | Text Only | Print | Product List | Glossary On
Versions: 1 2 3 4 5 6 7 8 9 10 11 12 13 14 15 16 17 18 19 20 21 22 23 24 25 26 27 28 29 30 31 32 33 34 35 36 37 38 39 40 41 42 43 44 45 46 47 48 49 50
000
ASUS44 KCRP 221310
HRRCRP

SOUTH TEXAS REGIONAL WEATHER ROUNDUP
NATIONAL WEATHER SERVICE CORPUS CHRISTI TX
700 AM CST SAT NOV 22 2014


TXZ229>244-221400-
...CORPUS CHRISTI AREA OBSERVATIONS...

CITY           SKY/WX    TMP DP  RH WIND       PRES   REMARKS
CORPUS CHRISTI MOCLDY    72  67  84 SE16G23   29.96R
NAS CORPUS CHR MOCLDY    70  32  24 SE21G29   29.94S THUNDER
ROCKPORT       LGT RAIN  67  64  90 SE31G38   29.90F
KINGSVILLE NAS LGT RAIN  71  70  96 SE13      29.96R
ALICE          LGT RAIN  72  67  84 S13       29.96R
FALFURRIAS     CLOUDY    71  68  90 SE12      29.95S
$$

...VICTORIA AREA OBSERVATIONS...

CITY           SKY/WX    TMP DP  RH WIND       PRES   REMARKS
VICTORIA       CLOUDY    67  64  90 E7        30.01S
BEEVILLE       CLOUDY    69  68  96 E9        29.97F
PLEASANTON     CLOUDY    69  65  88 SE7       29.98S
SAN ANTONIO    LGT RAIN  67  65  93 SE16      29.99F
$$

...LAREDO AREA OBSERVATIONS...

CITY           SKY/WX    TMP DP  RH WIND       PRES   REMARKS
LAREDO         CLOUDY    72  66  81 SE14      29.95R
COTULLA        LGT RAIN  69  67  93 SE6       29.95R FOG
DEL RIO        LGT RAIN  67  65  93 SE10      29.90R
MCALLEN        MOCLDY    71  68  90 SE16      29.91F
HEBBRONVILLE   CLOUDY    69  67  90 SE14G22   29.95S
$$

...OTHER TEXAS OBSERVATIONS...

CITY           SKY/WX    TMP DP  RH WIND       PRES   REMARKS
BROWNSVILLE    CLOUDY    72  70  93 SE9       29.97R
HOUSTON        PTCLDY    59  58  96 SE9       30.08S
COL. STATION   CLOUDY    61  59  93 SE12      30.04F
AUSTIN         CLOUDY    66  63  90 SE8       30.01S
WACO           CLOUDY    63  60  90 SE16      30.02F
FORT WORTH     FOG       56  56 100 SE10      30.04R VSB 1
WICHITA FALLS  LGT RAIN  57  54  89 N15       29.96F
LUBBOCK        CLOUDY    44  42  93 NW5       29.98S
EL PASO        LGT RAIN  52  43  71 N12       30.01F
$$

...MARINE OBSERVATIONS...

STATION/POSITION TIME  SKY/WX   TEMP    WIND        PRES    VSBY  WAVE   SWELL
                                AIR SEA DIR/SP/G                  HT/PER HT/PER
                 (UTC)          (F)     (DEG/KT/KT) (MB)    (MI)  (FT/S) (FT/S)
PORT ARANSAS     1300            69 64  120/ 23/ 26 1014.0F
BUOY 90 E PORT A 1300            73 74  120/ 23/ 27 1015.3F         6/ 7
BUOY 45 SE BAFFI 1300            74 74  140/ 19/ 21 1014.6F         7/ 7   2/13
BUOY 200 E PT IS 1300            74 75  110/ 19/ 21 1017.5R         6/ 8   3/ 8
BUOY 15 E GALVES 1300            63 62   90/ 16/ 17 1017.9F         4/ 6
$$


USA.gov is the U.S. government's official web portal to all federal, state and local government web resources and services.